Weather History for Broken Bow, NE

Change the Weather History Date:

Monday, August 19, 2013

  Actual Average Record
Temperature  
Mean Temperature 74 °F 72 °F  
Max Temperature 85 °F 84 °F 99 °F (1913)
Min Temperature 62 °F 59 °F 38 °F (2004)
Degree Days  
Heating Degree Days 0 0  
Month to date heating degree days 1 0  
Since 1 June heating degree days 52 51  
Cooling Degree Days 9 7  
Month to date cooling degree days 91 155  
Year to date cooling degree days 534 629  
Since 1 June cooling degree days 499 595  
Growing Degree Days 23 (Base 50)    
Moisture  
Dew Point 67 °F    
Average Humidity 81    
Maximum Humidity 100    
Minimum Humidity 61    
Precipitation  
Precipitation 0.00 in 0.07 in 1.43 in (1925)
Sea Level Pressure  
Sea Level Pressure 29.94 in    
Wind  
Wind Speed 6 mph (SSW)    
Max Wind Speed 14 mph    
Max Gust Speed 21 mph    
Visibility 8 miles    
Events      
T = Trace of Precipitation, MM = Missing Value Source: NWS Daily Summary

Daily Weather History Graph

Daily Weather History Graph

Search for Another Location

Airport:

Trip Planner

Search our weather history database for the weather conditions in past years. The results will help you decide how hot, cold, wet, or windy it might be!

Date:

Astronomy

Aug. 19, 2013 Rise Set
Actual Time 6:51 AM CDT 8:31 PM CDT
Civil Twilight 6:22 AM CDT 9:00 PM CDT
Nautical Twilight 5:46 AM CDT 9:36 PM CDT
Astronomical Twilight 5:08 AM CDT 10:14 PM CDT
Moon 7:23 PM CDT (8/19) 5:12 AM CDT (8/19)
Length of Visible Light 14h 38m
Length of Day
13h 39m
Waxing Gibbous, 97% of the Moon is Illuminated
Aug 19
Waxing Gibbous
Aug 20
Full
Aug 28
Last Quarter
Sep 5
New
Sep 12
First Quarter

Hourly Weather History & Observations

Time (CDT) Temp. Heat Index Dew Point Humidity Pressure Visibility Wind Dir Wind Speed Gust Speed Precip Events Conditions
12:53 AM 66.0 °F - 63.0 °F 90% 29.99 in 9.0 mi South 9.2 mph - N/A   Clear
1:53 AM 64.9 °F - 63.0 °F 93% 29.99 in 8.0 mi South 4.6 mph - N/A   Clear
2:53 AM 64.0 °F - 63.0 °F 96% 29.98 in 7.0 mi South 6.9 mph - N/A   Clear
3:53 AM 62.1 °F - 62.1 °F 100% 29.98 in 5.0 mi South 4.6 mph - N/A   Clear
4:53 AM 63.0 °F - 62.1 °F 97% 29.96 in 6.0 mi SSW 6.9 mph - N/A   Clear
5:53 AM 63.0 °F - 62.1 °F 97% 29.95 in 6.0 mi SSW 3.5 mph - N/A   Clear
6:53 AM 63.0 °F - 62.1 °F 97% 29.96 in 5.0 mi SSW 5.8 mph - N/A   Clear
7:53 AM 63.0 °F - 63.0 °F 100% 29.97 in 4.0 mi SSE 4.6 mph - N/A   Clear
8:53 AM 68.0 °F - 64.9 °F 90% 29.99 in 6.0 mi SSW 8.1 mph - N/A   Clear
9:53 AM 71.1 °F - 66.0 °F 84% 29.97 in 8.0 mi SSW 9.2 mph - N/A   Clear
10:53 AM 73.9 °F - 68.0 °F 82% 29.96 in 10.0 mi SSW 8.1 mph - N/A   Clear
11:53 AM 78.1 °F - 69.1 °F 74% 29.95 in 9.0 mi South 10.4 mph - N/A   Clear
12:53 PM 81.0 °F 84.4 °F 70.0 °F 69% 29.93 in 10.0 mi SSW 10.4 mph - N/A   Clear
1:53 PM 82.9 °F 88.0 °F 72.0 °F 69% 29.93 in 10.0 mi SSW 8.1 mph - N/A   Clear
2:53 PM 84.9 °F 90.1 °F 71.1 °F 63% 29.92 in 10.0 mi SSW 10.4 mph - N/A   Clear
3:53 PM 84.9 °F 89.4 °F 70.0 °F 61% 29.91 in 10.0 mi SSW 8.1 mph 16.1 mph N/A   Clear
4:53 PM 84.9 °F 89.4 °F 70.0 °F 61% 29.90 in 10.0 mi SSW 10.4 mph - N/A   Clear
5:53 PM 84.9 °F 89.4 °F 70.0 °F 61% 29.89 in 10.0 mi SSW 6.9 mph - N/A   Clear
6:53 PM 82.9 °F 87.0 °F 70.0 °F 65% 29.88 in 10.0 mi SSW 6.9 mph - N/A   Clear
7:53 PM 79.0 °F - 72.0 °F 79% 29.88 in 10.0 mi SSE 4.6 mph - N/A   Clear
8:53 PM 73.0 °F - 70.0 °F 90% 29.88 in 9.0 mi Calm Calm - N/A   Clear
9:53 PM 69.1 °F - 68.0 °F 96% 29.90 in 7.0 mi Calm Calm - N/A   Clear
10:53 PM 70.0 °F - 66.9 °F 90% 29.90 in 8.0 mi Calm Calm - N/A   Clear
11:53 PM 70.0 °F - 66.0 °F 87% 29.89 in 8.0 mi SSW 3.5 mph - N/A   Clear